COSMOS 2008

导读

COSMOS 2008是独联体(CIS)继承自苏联航天遗产的“宇宙”系列卫星,于1989年3月24日发射入轨。作为冷战末期苏联空间项目产物,该卫星延续“宇宙”系列多用途发展路线,大概率承担军事侦察或空间环境探测任务,具体任务细节因冷战保密传统未公开。它反映了当时苏联/独联体在近地轨道部署载荷的技术能力,是太空竞赛时代的代表性航天产物。

基本信息
目录编号:
19902
目录名称:
COSMOS 2008
国际标识:
1989-025A
轨道中心:
EARTH
卫星名称:
COSMOS 2008
卫星全名:
--
卫星状态:
在轨 (已飞行13688 天)
发射日期:
1989-03-24 UTC
国别 :
俄罗斯(独联体) (CIS)
星等 :
--
该卫星已列入 空间交会检测服务 Space Conjunction Data Service (SCDS) ,当前飞行风险评估等级: 无高风险
轨道信息
数据来源 国际轨道数据 AOE轨道数据
星历时间 2026-09-13T20:01:49+0800
19小时前
查看轨道信息
2026-09-12T23:00:00+0800
1天前
查看轨道信息
半长轴 7809.879km 7809.877km
偏心率 0.0049283 0.0049345
轨道倾角 74.008° 74.008°
近地点辐角 133.324° 134.733°
升交点赤经 278.984° 280.167°
平近点角 339.396° 331.335°
近地点 1393.252km 1393.202km
远地点 1470.232km 1470.278km
周期 114.479分钟 114.479分钟
每日圈数 12.578716 12.578721
详细信息
使用方式:
暂无
2D轨道图
3D轨道图
轨道高度分析图
轨道倾角分析图
轨道综合分析图
查看轨道综合分析图
与全量物体交会距离演化趋势 订阅飞行安全评估服务
与全量物体交会风险概率演化趋势 订阅飞行安全评估服务